Погода в Ряжске

Погода в Ряжске : погода сейчас, прогноз погоды и архив. Всё, что Вы хотите узнать о погоде в Ряжске!

Хотите узнать прогноз погоды в Ряжске? Тогда Вам сюда: Погода в Ряжске

Поиск расширенной информации на нашем сайте:

Полезная информация:

Другие новости

Новости СМИ2

Главная страница сайта

Новости сайта

03.07.2017

Напоминаем, что на нашем специализированном сайте Метеоцентр.Азия вы можете получить высокодетализированные автоматические прогнозы погоды по пунктам России, СНГ и мира в авиационном формате (включающие направление и скорость ветра, видимость, явления погоды, количество и форму облачности, нижнюю и верхнюю границу облачности).

Рекомендуем:

Погода в Ряжске - сегодня

Время (UTC), дата Ветер
(°,м/с) 
Видим.   Явления Облачность Т
(°С)
Тd
(°С)
f(%) Тe
(°С)
Pmin
(гПа)
dP
(гПа)
Po
(мм)
O2
(г/м3)
Тmin Tmax R s Состояние
почвы
00 22.05.19 170 (Ю) н/о    6/0 средняя 
[Ac trans]
+10.5 +7.3 81 +12  1016.1  -0.7  751  290           
03 22.05.19 тихо ()   10 км    8/0 средняя, верхняя 
[Ac trans|Ci sp]
+13.4 +8.2 71 +13  1015.2  -0.7  750  287  +10.3        сухая 
06 22.05.19 210 (ЮЗ) 10 км    9/0 верхняя 
[Ci sp]
+21.4 +7.3 40 +21  1014  -0.8  749  279           
09 22.05.19 230 (ЮЗ) 10 км    9/0 средняя, верхняя 
[Ac trans|Ci sp]
+24.2 +2.3 24 +24  1012.3  -1.5  748  277           
12 22.05.19 230 (ЮЗ) 10 км    9/5 1000 м верхняя 
[Cu med, cong|Ci sp]
+24.7 +5.4 29 +25  1010.8  -1.4  747  275           
15 22.05.19 220 (ЮЗ) 10 км    9/4 1000 м верхняя 
[Cu med, cong|Ci sp]
+22.8 +7.6 38 +23  1009.6  -1.2  746  276    +25.2       
18 22.05.19 тихо ()   10 км    9/0 средняя, верхняя 
[Ac trans|Ci sp]
+16.7 +8 56 +17  1009.6  -0.3  746  282           
21 22.05.19 170 (Ю) 4000 м  слаб. ливневой дождь  10/8 600 м кучево-дожд., средняя 
[Cb calv|Ac As]
+14.8 +11.2 79 +19  1008.9  -0.8  745  283           
00 23.05.19 тихо ()   н/о  {ливн. осадки}  9/4 600 м кучево-дожд., средняя 
[Cb calv|Ac trans]
+13.4 +11.6 89 +17  1007.9  -1.1  745  284           
03 23.05.19 тихо ()   4000 м  дымка  9/3 600 м кучево-дожд., средняя, верхняя 
[Cb calv|Ac trans|Ci sp]
+13.2 +12.4 95 +18  1006.7  -1.2  744  283  +12.1       
06 23.05.19 240 (ЮЗ) 10 км    9/3 1000 м кучево-дожд., средняя, верхняя 
[Cb calv|Ac trans|Ci sp]
+18.9 +12.4 66 +25  1005.4  -1  743  278           
09 23.05.19 220 (ЮЗ) 10 км    9/6 1000 м кучево-дожд., средняя, верхняя 
[Cb calv|Ac trans|Ci sp]
+22.8 +13 54 +28  1004.2  -1  742  273           
12 23.05.19 210 (ЮЗ) 10 км  в посл. час гроза{ливн. осадки}  9/6 1000 м кучево-дожд., средняя, верхняя 
[Cb calv|Ac trans|Ci sp]
+22.1 +15 64 +31  1003.2  -0.9  742  273           
15 23.05.19 330 (СЗ) 10 км    8/4 600 м кучево-дожд., средняя, верхняя 
[Cb calv|Ac trans|Ci sp]
+20.5 +11 54 +23  1003.1  -0.3  741  276    +24  0.3     
18 23.05.19 360 (С) 10 км    9/3 1000 м кучево-дожд., средняя, верхняя 
[Cb calv|Ac trans|Ci sp]
+17.1 +12.6 75 +24  1003.9  0.7  742  279           
21 23.05.19 350 (С) 4000 м  дымка  8/0 средняя, верхняя 
[Ac trans|Ci sp]
+14.4 +13 91 +22  1005.2  1.1  743  282           
00 24.05.19 010 (С) 4000 м  дымка  4/0 средняя 
[Ac trans]
+13 +12.5 97 +18  1006.3  1.1  743  283           
03 24.05.19 020 (С) 4000 м  дымка  10/10 300 м 
[St]
+13.1 +12.3 95 +18  1008.6  2.2  745  284  +12.8         
06 24.05.19 030 (СВ) 10 км  {дождь}  10/10 600 м 
[Sc]
+14.4 +10.6 78 +17  1010.5  1.9  747  284  +12.6         
09 24.05.19 030 (СВ) 10 км    9/3 600 м кучево-дожд., средняя, верхняя 
[Cb calv|Ac trans|Ci sp]
+16.2 +9 62 +17  1012.7  2.2  748  283           
12 24.05.19 040 (СВ) 10 км    8/4 600 м кучево-дожд., средняя 
[Cb calv|Ac trans]
+16.1 +7.5 57 +17  1013.1  0.4  749  284           
15 24.05.19 050 (СВ) 10 км    4/0 средняя, верхняя 
[Ac trans|Ci sp]
+16.8 +4.3 43 +18  1012.9  -0.2  748  283    +17.5  0.0     
18 24.05.19 070 (В) 10 км    3/0 средняя, верхняя 
[Ac trans|Ci sp]
+10.2 +6.1 76 +11  1014.3  749  290           
21 24.05.19 080 (В) н/о    3/0 верхняя 
[Ci sp]
+8.3 +4 74 +8  1014.6  0.2  749  292           
00 25.05.19 080 (В) н/о    3/0 верхняя 
[Ci sp]
+7.9 +1.7 65 +8  1014.7  0.1  749  293           
Время (UTC), дата Ветер
(°,м/с) 
Видим.   Явления Облачность Т
(°С)
Тd
(°С)
f(%) Тe
(°С)
Pmin
(гПа)
dP
(гПа)
Po
(мм)
O2
(г/м3)
Тmin Tmax R s Состояние
почвы

Для получения пояснительной информации подведите курсор к названию столбца.

ПОГОДА в Ряжске - архив

Всё, что Вы хотите узнать о погоде в Ряжске - удобно и подробно!

Выберите нужную дату (начиная с 1 января 2018* года) и нажмите кнопку "Найти".
Будут отображены архивные сводки погоды по пункту Ряжск, начиная с указанной даты.


Отображать данные в формате CSV (для использования в таблицах Excel)


Внимание! Наш архив погоды предназначен исключительно для личного некоммерческого использования в познавательных целях. Если Вам необходимы официальные справки о состоянии погоды (для производственных, юридических, коммерческих и т.п. целей), обращайтесь в органы Росгидромета.

*Примечание: данная дата относится к архиву по метеостанциям СССР (Россия, СНГ, Балтия).
Архив по метеостанциям Зарубежной Европы и Азии (кроме Китая) хранится 10 дней, по другим регионам земного шара (Китай, Африка, Америка, Австралия, Океания) - 1 день.

Ряжск - район местоположения метеостанции


Название, широта, долгота, высота метеостанции:
Ряжск 53.7°ш. 40.1°д. 127 м над ур. моря [Российская Федерация]

Дополнительная информация

В oтличие oт бoльшинства пoгoдных сайтoв мы публикуем пoдрoбную метеoинфoрмацию в детальнoм прoфессиoнальнoм фoрмате.

Характеристики температуры и влажнoсти вoздуха измеряются на высoте 2 м в тени вдали oт зданий и деревьев.
Скoрoсть ветра измеряется на высoте 10 м (на урoвне рoста челoвека скoрoсть ветра ниже в 1.5-2 раза). Если метеoстанция нахoдится в гoрoде или в лесу, тo скoрoсть ветра занижена на 2-4 м/с пo сравнению с oткрытым местoм. Скoрoсть ветра над акватoриями крупных рек и oзёр, а также на вершинах хoлмoв на 2-5 м/с выше, чем в oбычных услoвиях.
Атмoсфернoе давление в разных тoчках местнoсти мoжет значительнo oтличаться oт давления на метеoстанции, в зависимoсти oт услoвий рельефа (при пoдъёме на 10 м давление пoнижается примернo на 1 мм рт.ст.).